Date,TemperatureHighF,TemperatureAvgF,TemperatureLowF,DewpointHighF,DewpointAvgF,DewpointLowF,HumidityHigh,HumidityAvg,HumidityLow,PressureMaxIn,PressureMinIn,WindSpeedMaxMPH,WindSpeedAvgMPH,GustSpeedMaxMPH,PrecipitationSumIn
2013-12-1,69.6,48.6,36.7,55.2,44.4,35.6,97,87,56,0.00,40.00,5,0,7,0.03
2013-12-2,66.4,49.4,38.1,54.7,45.4,37.0,98,87,56,0.00,40.00,9,0,12,0.02
2013-12-3,56.7,48.7,34.9,50.5,35.5,25.7,95,63,32,0.00,40.00,16,1,25,0.02
2013-12-4,52.5,37.3,28.9,36.5,30.6,27.3,96,80,38,0.00,40.00,13,0,13,0.49
2013-12-5,50.4,34.6,26.1,37.4,29.4,24.3,95,83,45,0.00,40.00,10,0,12,0.59
2013-12-6,45.3,35.9,25.5,41.0,33.0,24.1,97,90,53,0.00,40.00,5,0,6,0.34
2013-12-7,47.7,36.8,28.8,41.0,31.9,25.5,100,85,43,0.00,40.00,15,1,15,0.29
2013-12-8,48.0,33.0,26.6,34.3,27.1,21.6,96,82,35,0.00,40.00,5,0,5,0.00
2013-12-9,52.3,32.9,23.4,34.7,28.0,21.6,95,84,44,0.00,40.00,4,0,6,0.01
2013-12-10,54.1,34.4,24.4,38.3,30.1,23.0,96,86,49,0.00,40.00,2,0,3,0.01
2013-12-11,57.7,37.0,27.0,41.5,32.6,25.7,96,86,52,0.00,40.00,2,0,4,0.00
2013-12-12,59.5,38.1,27.1,42.4,33.7,25.7,97,86,49,0.00,40.00,2,0,4,0.01
2013-12-13,61.3,39.1,28.2,45.0,34.7,27.0,97,86,52,0.00,40.00,4,0,5,0.00
2013-12-14,61.2,40.4,29.5,48.4,36.8,28.2,97,88,60,0.00,40.00,3,0,4,0.01
2013-12-15,62.1,40.6,30.2,48.7,37.3,29.1,97,89,60,0.00,40.00,7,0,8,0.01
2013-12-16,63.9,42.2,31.5,50.2,38.6,30.4,97,88,59,0.00,40.00,5,0,6,0.00
2013-12-17,61.2,41.8,31.8,50.0,38.9,30.7,97,90,66,0.00,40.00,0,0,0,0.01
2013-12-18,60.4,43.3,34.3,49.5,40.4,33.1,97,90,64,0.00,40.00,0,0,0,0.01
2013-12-19,63.7,47.7,34.0,40.6,35.7,26.6,92,68,25,0.00,40.00,15,1,15,0.00
2013-12-20,62.1,40.7,29.1,39.6,33.6,27.7,96,79,38,0.00,40.00,4,0,5,0.00
2013-12-21,68.2,49.0,37.2,52.2,44.1,34.9,97,84,54,0.00,40.00,8,0,9,0.00
2013-12-22,65.5,44.7,33.6,52.2,40.8,32.5,97,88,56,0.00,40.00,5,0,5,0.01
2013-12-23,66.0,44.4,32.7,52.7,40.8,31.6,97,88,60,0.00,40.00,2,0,3,0.01
2013-12-24,67.5,45.6,35.2,53.6,41.9,34.0,99,88,60,0.00,40.00,4,0,5,0.00
2013-12-25,63.1,43.2,34.0,51.3,39.4,32.9,98,88,54,0.00,40.00,1,0,4,0.01
2013-12-26,64.6,41.7,30.2,47.3,37.1,29.1,97,86,51,0.00,40.00,4,0,5,0.01
2013-12-27,54.1,40.1,31.3,47.3,37.6,30.0,97,91,71,0.00,40.00,4,0,5,0.01
2013-12-28,62.4,40.9,29.7,49.3,37.4,28.6,100,89,59,0.00,40.00,2,0,3,0.00
2013-12-29,64.6,41.3,29.7,43.7,35.7,28.6,97,83,45,0.00,40.00,2,0,4,0.01
2013-12-30,64.0,42.0,29.3,43.9,36.0,28.0,97,82,38,0.00,40.00,5,0,6,0.01
2013-12-31,62.2,42.7,34.3,47.5,38.9,33.1,97,88,55,0.00,40.00,5,0,7,0.00